Location: Ariel
(45.9570°N, 122.5700°W)
Time: 08:07:45
(UTC-07:00)

deb Explorer IX - All Passes

Search period start: 17 July 2019 00:00
Search period end: 27 July 2019 00:00
Orbit: 539 x 1112 km, 38.8° (Epoch: 17 July)

Date Brightness Start Highest point End Pass type
(mag) Time Alt. Az. Time Alt. Az. Time Alt. Az.
17 Jul - 05:43:42 10° SW 05:47:04 25° SSE 05:50:33 10° ESE daylight
17 Jul - 07:29:35 10° WSW 07:33:17 31° S 07:37:17 10° ESE daylight
17 Jul - 09:16:19 10° WSW 09:19:31 19° SSW 09:22:59 10° SSE daylight
18 Jul - 03:38:34 10° SSE 03:39:17 10° SSE 03:39:59 10° SE visible
18 Jul - 05:21:53 10° SW 05:25:14 25° SSE 05:28:40 10° ESE daylight
18 Jul - 07:07:50 10° WSW 07:11:26 30° S 07:15:19 10° ESE daylight
18 Jul - 08:54:38 10° WSW 08:57:39 18° SSW 09:00:53 10° SSE daylight
19 Jul - 03:16:21 10° SSE 03:17:26 11° SSE 03:18:29 10° SE visible
19 Jul - 05:00:02 10° SW 05:03:25 25° SSE 05:06:49 10° ESE visible
19 Jul - 06:46:03 10° WSW 06:49:37 29° S 06:53:22 10° SE daylight
19 Jul - 08:32:57 10° WSW 08:35:47 17° SSW 08:38:48 10° SSE daylight
20 Jul - 02:54:10 10° S 02:55:34 11° SSE 02:56:57 10° SE visible
20 Jul - 04:38:10 10° SW 04:41:35 26° S 04:44:59 10° ESE visible
20 Jul - 06:24:16 10° WSW 06:27:47 29° S 06:31:28 10° SE daylight
20 Jul - 08:11:16 10° WSW 08:13:56 16° SSW 08:16:45 10° SSE daylight
21 Jul - 02:32:01 10° S 02:33:42 12° SSE 02:35:22 10° SE visible
21 Jul - 04:16:16 10° SW 04:19:46 26° S 04:23:10 10° ESE visible
21 Jul - 06:02:27 10° WSW 06:05:58 29° S 06:09:33 10° SE daylight
21 Jul - 07:49:34 10° WSW 07:52:05 16° SSW 07:54:42 10° SSE daylight
22 Jul - 02:09:51 10° S 02:11:51 13° SSE 02:13:46 10° SE visible
22 Jul - 03:54:21 10° SW 03:57:56 27° S 04:01:22 10° ESE visible
22 Jul - 05:40:37 10° WSW 05:44:08 28° S 05:47:41 10° SE daylight
22 Jul - 07:27:51 10° WSW 07:30:14 15° SSW 07:32:40 10° SSE daylight
23 Jul - 01:47:41 10° S 01:49:59 14° SSE 01:52:09 10° SE visible
23 Jul - 03:32:25 10° SW 03:36:06 27° S 03:39:35 10° ESE visible
23 Jul - 05:18:46 10° WSW 05:22:19 28° S 05:25:49 10° SE daylight
23 Jul - 07:06:07 10° WSW 07:08:22 14° SSW 07:10:40 10° S daylight
24 Jul - 01:25:32 10° S 01:28:06 15° SSE 01:30:32 10° ESE night (unlit)
24 Jul - 03:10:27 10° SW 03:14:16 28° S 03:17:48 10° ESE visible
24 Jul - 04:56:53 10° WSW 05:00:29 28° S 05:03:59 10° SE visible
24 Jul - 06:44:22 10° WSW 06:46:31 14° SSW 06:48:41 10° S daylight
25 Jul - 01:03:21 10° SSW 01:06:13 16° SSE 01:08:53 10° ESE night (unlit)
25 Jul - 02:48:27 10° SW 02:52:25 29° S 02:56:03 10° ESE visible
25 Jul - 04:34:58 10° WSW 04:38:39 28° S 04:42:09 10° SE visible
25 Jul - 06:22:35 10° SW 06:24:39 14° SSW 06:26:44 10° S daylight
26 Jul - 00:41:10 10° SSW 00:44:19 17° SSE 00:47:14 10° ESE night (unlit)
26 Jul - 02:26:26 10° SW 02:30:34 30° S 02:34:17 10° ESE visible
26 Jul - 04:13:03 10° WSW 04:16:48 28° S 04:20:20 10° SE visible
26 Jul - 06:00:47 10° SW 06:02:48 13° SSW 06:04:48 10° S daylight
